Year,Month,Day,Hour,Minute,Value (Times are PST for temperature in C)
2011,07,13,00,00,15.90
2011,07,13,00,01,15.90
2011,07,13,00,02,15.90
2011,07,13,00,03,15.90
2011,07,13,00,04,15.90
2011,07,13,00,05,15.90
2011,07,13,00,06,15.90
2011,07,13,00,07,15.90
2011,07,13,00,08,15.90
2011,07,13,00,09,15.90
2011,07,13,00,10,15.90
2011,07,13,00,11,15.90
2011,07,13,00,12,15.90
2011,07,13,00,13,15.90
2011,07,13,00,14,15.90
2011,07,13,00,15,15.90
2011,07,13,00,16,15.80
2011,07,13,00,17,15.80
2011,07,13,00,18,15.80
2011,07,13,00,19,15.80
2011,07,13,00,20,15.80
2011,07,13,00,21,15.80
2011,07,13,00,22,15.80
2011,07,13,00,23,15.80
2011,07,13,00,24,15.80
2011,07,13,00,25,15.80
2011,07,13,00,26,15.90
2011,07,13,00,27,15.90
2011,07,13,00,28,15.90
2011,07,13,00,29,15.90
2011,07,13,00,30,15.90
2011,07,13,00,31,15.90
2011,07,13,00,32,15.90
2011,07,13,00,33,15.90
2011,07,13,00,34,15.90
2011,07,13,00,35,15.90
2011,07,13,00,36,15.90
2011,07,13,00,37,15.90
2011,07,13,00,38,15.90
2011,07,13,00,39,15.90
2011,07,13,00,40,15.90
2011,07,13,00,41,15.90
2011,07,13,00,42,15.90
2011,07,13,00,43,15.90
2011,07,13,00,44,15.90
2011,07,13,00,45,15.90
2011,07,13,00,46,15.90
2011,07,13,00,47,15.90
2011,07,13,00,48,15.90
2011,07,13,00,49,15.90
2011,07,13,00,50,15.90
2011,07,13,00,51,15.90
2011,07,13,00,52,15.90
2011,07,13,00,53,15.90
2011,07,13,00,54,15.90
2011,07,13,00,55,15.90
2011,07,13,00,56,15.90
2011,07,13,00,57,15.90
2011,07,13,00,58,15.90
2011,07,13,00,59,15.90
2011,07,13,01,00,15.90
2011,07,13,01,01,15.90
2011,07,13,01,02,15.80
2011,07,13,01,03,15.80
2011,07,13,01,04,15.80
2011,07,13,01,05,15.80
2011,07,13,01,06,15.80
2011,07,13,01,07,15.80
2011,07,13,01,08,15.80
2011,07,13,01,09,15.80
2011,07,13,01,10,15.80
2011,07,13,01,11,15.80
2011,07,13,01,12,15.80
2011,07,13,01,13,15.80
2011,07,13,01,14,15.80
2011,07,13,01,15,15.70
2011,07,13,01,16,15.70
2011,07,13,01,17,15.70
2011,07,13,01,18,15.70
2011,07,13,01,19,15.70
2011,07,13,01,20,15.70
2011,07,13,01,21,15.70
2011,07,13,01,22,15.70
2011,07,13,01,23,15.60
2011,07,13,01,24,15.60
2011,07,13,01,25,15.60
2011,07,13,01,26,15.60
2011,07,13,01,27,15.60
2011,07,13,01,28,15.60
2011,07,13,01,29,15.50
2011,07,13,01,30,15.50
2011,07,13,01,31,15.40
2011,07,13,01,32,15.40
2011,07,13,01,33,15.40
2011,07,13,01,34,15.30
2011,07,13,01,35,15.30
2011,07,13,01,36,15.30
2011,07,13,01,37,15.30
2011,07,13,01,38,15.30
2011,07,13,01,39,15.20
2011,07,13,01,40,15.20
2011,07,13,01,41,15.20
2011,07,13,01,42,15.20
2011,07,13,01,43,15.20
2011,07,13,01,44,15.10
2011,07,13,01,45,15.10
2011,07,13,01,46,15.10
2011,07,13,01,47,15.10
2011,07,13,01,48,15.10
2011,07,13,01,49,15.10
2011,07,13,01,50,15.00
2011,07,13,01,51,15.00
2011,07,13,01,52,15.00
2011,07,13,01,53,14.90
2011,07,13,01,54,14.90
2011,07,13,01,55,14.90
2011,07,13,01,56,14.80
2011,07,13,01,57,14.80
2011,07,13,01,58,14.80
2011,07,13,01,59,14.80
2011,07,13,02,00,14.80
2011,07,13,02,01,14.80
2011,07,13,02,02,14.70
2011,07,13,02,03,14.70
2011,07,13,02,04,14.70
2011,07,13,02,05,14.70
2011,07,13,02,06,14.70
2011,07,13,02,07,14.70
2011,07,13,02,08,14.70
2011,07,13,02,09,14.70
2011,07,13,02,10,14.70
2011,07,13,02,11,14.70
2011,07,13,02,12,14.70
2011,07,13,02,13,14.70
2011,07,13,02,14,14.70
2011,07,13,02,15,14.70
2011,07,13,02,16,14.70
2011,07,13,02,17,14.70
2011,07,13,02,18,14.70
2011,07,13,02,19,14.70
2011,07,13,02,20,14.70
2011,07,13,02,21,14.70
2011,07,13,02,22,14.70
2011,07,13,02,23,14.70
2011,07,13,02,24,14.70
2011,07,13,02,25,14.70
2011,07,13,02,26,14.70
2011,07,13,02,27,14.70
2011,07,13,02,28,14.70
2011,07,13,02,29,14.70
2011,07,13,02,30,14.70
2011,07,13,02,31,14.70
2011,07,13,02,32,14.70
2011,07,13,02,33,14.60
2011,07,13,02,34,14.60
2011,07,13,02,35,14.60
2011,07,13,02,36,14.60
2011,07,13,02,37,14.60
2011,07,13,02,38,14.60
2011,07,13,02,39,14.60
2011,07,13,02,40,14.60
2011,07,13,02,41,14.60
2011,07,13,02,42,14.60
2011,07,13,02,43,14.60
2011,07,13,02,44,14.60
2011,07,13,02,45,14.60
2011,07,13,02,46,14.60
2011,07,13,02,47,14.60
2011,07,13,02,48,14.60
2011,07,13,02,49,14.60
2011,07,13,02,50,14.60
2011,07,13,02,51,14.50
2011,07,13,02,52,14.50
2011,07,13,02,53,14.50
2011,07,13,02,54,14.40
2011,07,13,02,55,14.40
2011,07,13,02,56,14.40
2011,07,13,02,57,14.40
2011,07,13,02,58,14.40
2011,07,13,02,59,14.40
2011,07,13,03,00,14.30
2011,07,13,03,01,14.30
2011,07,13,03,02,14.30
2011,07,13,03,03,14.30
2011,07,13,03,04,14.30
2011,07,13,03,05,14.30
2011,07,13,03,06,14.30
2011,07,13,03,07,14.40
2011,07,13,03,08,14.40
2011,07,13,03,09,14.40
2011,07,13,03,10,14.40
2011,07,13,03,11,14.40
2011,07,13,03,12,14.40
2011,07,13,03,13,14.40
2011,07,13,03,14,14.40
2011,07,13,03,15,14.40
2011,07,13,03,16,14.40
2011,07,13,03,17,14.40
2011,07,13,03,18,14.40
2011,07,13,03,19,14.40
2011,07,13,03,20,14.40
2011,07,13,03,21,14.40
2011,07,13,03,22,14.40
2011,07,13,03,23,14.40
2011,07,13,03,24,14.40
2011,07,13,03,25,14.40
2011,07,13,03,26,14.40
2011,07,13,03,27,14.40
2011,07,13,03,28,14.40
2011,07,13,03,29,14.30
2011,07,13,03,30,14.30
2011,07,13,03,31,14.30
2011,07,13,03,32,14.30
2011,07,13,03,33,14.30
2011,07,13,03,34,14.30
2011,07,13,03,35,14.30
2011,07,13,03,36,14.30
2011,07,13,03,37,14.30
2011,07,13,03,38,14.30
2011,07,13,03,39,14.30
2011,07,13,03,40,14.30
2011,07,13,03,41,14.30
2011,07,13,03,42,14.30
2011,07,13,03,43,14.30
2011,07,13,03,44,14.30
2011,07,13,03,45,14.30
2011,07,13,03,46,14.30
2011,07,13,03,47,14.30
2011,07,13,03,48,14.40
2011,07,13,03,49,14.40
2011,07,13,03,50,14.40
2011,07,13,03,51,14.40
2011,07,13,03,52,14.40
2011,07,13,03,53,14.40
2011,07,13,03,54,14.40
2011,07,13,03,55,14.40
2011,07,13,03,56,14.40
2011,07,13,03,57,14.30
2011,07,13,03,58,14.30
2011,07,13,03,59,14.30
2011,07,13,04,00,14.30
2011,07,13,04,01,14.30
2011,07,13,04,02,14.30
2011,07,13,04,03,14.30
2011,07,13,04,04,14.30
2011,07,13,04,05,14.30
2011,07,13,04,06,14.30
2011,07,13,04,07,14.30
2011,07,13,04,08,14.30
2011,07,13,04,09,14.30
2011,07,13,04,10,14.30
2011,07,13,04,11,14.30
2011,07,13,04,12,14.30
2011,07,13,04,13,14.30
2011,07,13,04,14,14.20
2011,07,13,04,15,14.20
2011,07,13,04,16,14.20
2011,07,13,04,17,14.20
2011,07,13,04,18,14.20
2011,07,13,04,19,14.20
2011,07,13,04,20,14.20
2011,07,13,04,21,14.20
2011,07,13,04,22,14.20
2011,07,13,04,23,14.20
2011,07,13,04,24,14.20
2011,07,13,04,25,14.20
2011,07,13,04,26,14.20
2011,07,13,04,27,14.20
2011,07,13,04,28,14.20
2011,07,13,04,29,14.20
2011,07,13,04,30,14.20
2011,07,13,04,31,14.20
2011,07,13,04,32,14.20
2011,07,13,04,33,14.20
2011,07,13,04,34,14.20
2011,07,13,04,35,14.20
2011,07,13,04,36,14.20
2011,07,13,04,37,14.20
2011,07,13,04,38,14.20
2011,07,13,04,39,14.20
2011,07,13,04,40,14.20
2011,07,13,04,41,14.20
2011,07,13,04,42,14.20
2011,07,13,04,43,14.20
2011,07,13,04,44,14.20
2011,07,13,04,45,14.20
2011,07,13,04,46,14.20
2011,07,13,04,47,14.20
2011,07,13,04,48,14.20
2011,07,13,04,49,14.20
2011,07,13,04,50,14.20
2011,07,13,04,51,14.20
2011,07,13,04,52,14.20
2011,07,13,04,53,14.20
2011,07,13,04,54,14.20
2011,07,13,04,55,14.20
2011,07,13,04,56,14.10
2011,07,13,04,57,14.10
2011,07,13,04,58,14.10
2011,07,13,04,59,14.10
2011,07,13,05,00,14.10
2011,07,13,05,01,14.10
2011,07,13,05,02,14.10
2011,07,13,05,03,14.10
2011,07,13,05,04,14.10
2011,07,13,05,05,14.10
2011,07,13,05,06,14.10
2011,07,13,05,07,14.10
2011,07,13,05,08,14.10
2011,07,13,05,09,14.20
2011,07,13,05,10,14.20
2011,07,13,05,11,14.20
2011,07,13,05,12,14.20
2011,07,13,05,13,14.20
2011,07,13,05,14,14.20
2011,07,13,05,15,14.20
2011,07,13,05,16,14.20
2011,07,13,05,17,14.20
2011,07,13,05,18,14.20
2011,07,13,05,19,14.20
2011,07,13,05,20,14.10
2011,07,13,05,21,14.10
2011,07,13,05,22,14.10
2011,07,13,05,23,14.10
2011,07,13,05,24,14.10
2011,07,13,05,25,14.10
2011,07,13,05,26,14.10
2011,07,13,05,27,14.10
2011,07,13,05,28,14.10
2011,07,13,05,29,14.10
2011,07,13,05,30,14.00
2011,07,13,05,31,14.00
2011,07,13,05,32,14.00
2011,07,13,05,33,14.00
2011,07,13,05,34,14.00
2011,07,13,05,35,14.00
2011,07,13,05,36,14.00
2011,07,13,05,37,14.00
2011,07,13,05,38,14.00
2011,07,13,05,39,14.00
2011,07,13,05,40,14.00
2011,07,13,05,41,14.00
2011,07,13,05,42,14.00
2011,07,13,05,43,14.00
2011,07,13,05,44,14.00
2011,07,13,05,45,14.00
2011,07,13,05,46,14.00
2011,07,13,05,47,14.00
2011,07,13,05,48,14.10
2011,07,13,05,49,14.10
2011,07,13,05,50,14.00
2011,07,13,05,51,14.00
2011,07,13,05,52,14.00
2011,07,13,05,53,14.10
2011,07,13,05,54,14.00
2011,07,13,05,55,14.00
2011,07,13,05,56,14.00
2011,07,13,05,57,14.00
2011,07,13,05,58,14.00
2011,07,13,05,59,13.90
2011,07,13,06,00,13.90
2011,07,13,06,01,13.90
2011,07,13,06,02,13.90
2011,07,13,06,03,13.90
2011,07,13,06,04,13.90
2011,07,13,06,05,13.80
2011,07,13,06,06,13.80
2011,07,13,06,07,13.80
2011,07,13,06,08,13.80
2011,07,13,06,09,13.80
2011,07,13,06,10,13.80
2011,07,13,06,11,13.80
2011,07,13,06,12,13.80
2011,07,13,06,13,13.80
2011,07,13,06,14,13.80
2011,07,13,06,15,13.70
2011,07,13,06,16,13.70
2011,07,13,06,17,13.70
2011,07,13,06,18,13.70
2011,07,13,06,19,13.70
2011,07,13,06,20,13.70
2011,07,13,06,21,13.70
2011,07,13,06,22,13.70
2011,07,13,06,23,13.70
2011,07,13,06,24,13.80
2011,07,13,06,25,13.80
2011,07,13,06,26,13.80
2011,07,13,06,27,13.80
2011,07,13,06,28,13.80
2011,07,13,06,29,13.80
2011,07,13,06,30,13.80
2011,07,13,06,31,13.80
2011,07,13,06,32,13.80
2011,07,13,06,33,13.80
2011,07,13,06,34,13.80
2011,07,13,06,35,13.80
2011,07,13,06,36,13.80
2011,07,13,06,37,13.80
2011,07,13,06,38,13.80
2011,07,13,06,39,13.80
2011,07,13,06,40,13.80
2011,07,13,06,41,13.80
2011,07,13,06,42,13.80
2011,07,13,06,43,13.80
2011,07,13,06,44,13.80
2011,07,13,06,45,13.90
2011,07,13,06,46,13.90
2011,07,13,06,47,13.90
2011,07,13,06,48,13.90
2011,07,13,06,49,13.90
2011,07,13,06,50,13.90
2011,07,13,06,51,14.00
2011,07,13,06,52,14.00
2011,07,13,06,53,14.00
2011,07,13,06,54,14.00
2011,07,13,06,55,14.00
2011,07,13,06,56,14.00
2011,07,13,06,57,14.00
2011,07,13,06,58,14.00
2011,07,13,06,59,14.10
2011,07,13,07,00,14.10
2011,07,13,07,01,14.10
2011,07,13,07,02,14.10
2011,07,13,07,03,14.10
2011,07,13,07,04,14.10
2011,07,13,07,05,14.20
2011,07,13,07,06,14.20
2011,07,13,07,07,14.20
2011,07,13,07,08,14.20
2011,07,13,07,09,14.20
2011,07,13,07,10,14.20
2011,07,13,07,11,14.30
2011,07,13,07,12,14.30
2011,07,13,07,13,14.30
2011,07,13,07,14,14.30
2011,07,13,07,15,14.30
2011,07,13,07,16,14.30
2011,07,13,07,17,14.40
2011,07,13,07,18,14.40
2011,07,13,07,19,14.40
2011,07,13,07,20,14.40
2011,07,13,07,21,14.40
2011,07,13,07,22,14.50
2011,07,13,07,23,14.50
2011,07,13,07,24,14.50
2011,07,13,07,25,14.60
2011,07,13,07,26,14.60
2011,07,13,07,27,14.60
2011,07,13,07,28,14.70
2011,07,13,07,29,14.70
2011,07,13,07,30,14.80
2011,07,13,07,31,14.90
2011,07,13,07,32,14.90
2011,07,13,07,33,15.00
2011,07,13,07,34,15.00
2011,07,13,07,35,15.10
2011,07,13,07,36,15.10
2011,07,13,07,37,15.20
2011,07,13,07,38,15.20
2011,07,13,07,39,15.20
2011,07,13,07,40,15.20
2011,07,13,07,41,15.20
2011,07,13,07,42,15.20
2011,07,13,07,43,15.20
2011,07,13,07,44,15.20
2011,07,13,07,45,15.20
2011,07,13,07,46,15.20
2011,07,13,07,47,15.20
2011,07,13,07,48,15.20
2011,07,13,07,49,15.20
2011,07,13,07,50,15.20
2011,07,13,07,51,15.20
2011,07,13,07,52,15.20
2011,07,13,07,53,15.20
2011,07,13,07,54,15.20
2011,07,13,07,55,15.20
2011,07,13,07,56,15.30
2011,07,13,07,57,15.30
2011,07,13,07,58,15.30
2011,07,13,07,59,15.30
2011,07,13,08,00,15.40
2011,07,13,08,01,15.40
2011,07,13,08,02,15.40
2011,07,13,08,03,15.40
2011,07,13,08,04,15.40
2011,07,13,08,05,15.40
2011,07,13,08,06,15.40
2011,07,13,08,07,15.40
2011,07,13,08,08,15.50
2011,07,13,08,09,15.50
2011,07,13,08,10,15.50
2011,07,13,08,11,15.50
2011,07,13,08,12,15.50
2011,07,13,08,13,15.50
2011,07,13,08,14,15.60
2011,07,13,08,15,15.60
2011,07,13,08,16,15.60
2011,07,13,08,17,15.60
2011,07,13,08,18,15.60
2011,07,13,08,19,15.60
2011,07,13,08,20,15.60
2011,07,13,08,21,15.60
2011,07,13,08,22,15.60
2011,07,13,08,23,15.60
2011,07,13,08,24,15.60
2011,07,13,08,25,15.60
2011,07,13,08,26,15.60
2011,07,13,08,27,15.60
2011,07,13,08,28,15.50
2011,07,13,08,29,15.50
2011,07,13,08,30,15.50
2011,07,13,08,31,15.50
2011,07,13,08,32,15.60
2011,07,13,08,33,15.60
2011,07,13,08,34,15.60
2011,07,13,08,35,15.50
2011,07,13,08,36,15.50
2011,07,13,08,37,15.50
2011,07,13,08,38,15.50
2011,07,13,08,39,15.50
2011,07,13,08,40,15.50
2011,07,13,08,41,15.50
2011,07,13,08,42,15.50
2011,07,13,08,43,15.50
2011,07,13,08,44,15.50
2011,07,13,08,45,15.50
2011,07,13,08,46,15.60
2011,07,13,08,47,15.60
2011,07,13,08,48,15.60
2011,07,13,08,49,15.70
2011,07,13,08,50,15.70
2011,07,13,08,51,15.70
2011,07,13,08,52,15.70
2011,07,13,08,53,15.80
2011,07,13,08,54,15.80
2011,07,13,08,55,15.80
2011,07,13,08,56,15.90
2011,07,13,08,57,15.90
2011,07,13,08,58,15.90
2011,07,13,08,59,15.90
2011,07,13,09,00,15.90
2011,07,13,09,01,15.90
2011,07,13,09,02,15.90
2011,07,13,09,03,15.90
2011,07,13,09,04,15.90
2011,07,13,09,05,15.90
2011,07,13,09,06,15.90
2011,07,13,09,07,15.90
2011,07,13,09,08,15.90
2011,07,13,09,09,16.00
2011,07,13,09,10,16.00
2011,07,13,09,11,16.00
2011,07,13,09,12,16.10
2011,07,13,09,13,16.10
2011,07,13,09,14,16.10
2011,07,13,09,15,16.10
2011,07,13,09,16,16.10
2011,07,13,09,17,16.10
2011,07,13,09,18,16.20
2011,07,13,09,19,16.20
2011,07,13,09,20,16.20
2011,07,13,09,21,16.30
2011,07,13,09,22,16.30
2011,07,13,09,23,16.30
2011,07,13,09,24,16.30
2011,07,13,09,25,16.20
2011,07,13,09,26,16.20
2011,07,13,09,27,16.20
2011,07,13,09,28,16.20
2011,07,13,09,29,16.10
2011,07,13,09,30,16.10
2011,07,13,09,31,16.10
2011,07,13,09,32,16.10
2011,07,13,09,33,16.10
2011,07,13,09,34,16.10
2011,07,13,09,35,16.10
2011,07,13,09,36,16.20
2011,07,13,09,37,16.20
2011,07,13,09,38,16.20
2011,07,13,09,39,16.30
2011,07,13,09,40,16.30
2011,07,13,09,41,16.30
2011,07,13,09,42,16.30
2011,07,13,09,43,16.40
2011,07,13,09,44,16.40
2011,07,13,09,45,16.40
2011,07,13,09,46,16.50
2011,07,13,09,47,16.50
2011,07,13,09,48,16.60
2011,07,13,09,49,16.60
2011,07,13,09,50,16.60
2011,07,13,09,51,16.60
2011,07,13,09,52,16.60
2011,07,13,09,53,16.70
2011,07,13,09,54,16.70
2011,07,13,09,55,16.70
2011,07,13,09,56,16.70
2011,07,13,09,57,16.70
2011,07,13,09,58,16.70
2011,07,13,09,59,16.80
2011,07,13,10,00,16.80
2011,07,13,10,01,16.80
2011,07,13,10,02,16.80
2011,07,13,10,03,16.80
2011,07,13,10,04,16.90
2011,07,13,10,05,16.90
2011,07,13,10,06,16.90
2011,07,13,10,07,17.00
2011,07,13,10,08,17.00
2011,07,13,10,09,17.00
2011,07,13,10,10,17.10
2011,07,13,10,11,17.10
2011,07,13,10,12,17.10
2011,07,13,10,13,17.10
2011,07,13,10,14,17.10
2011,07,13,10,15,17.10
2011,07,13,10,16,17.10
2011,07,13,10,17,17.00
2011,07,13,10,18,17.00
2011,07,13,10,19,17.00
2011,07,13,10,20,17.00
2011,07,13,10,21,16.90
2011,07,13,10,22,16.90
2011,07,13,10,23,16.90
2011,07,13,10,24,16.90
2011,07,13,10,25,16.90
2011,07,13,10,26,16.90
2011,07,13,10,27,16.90
2011,07,13,10,28,16.90
2011,07,13,10,29,16.80
2011,07,13,10,30,16.80
2011,07,13,10,31,16.80
2011,07,13,10,32,16.80
2011,07,13,10,33,16.80
2011,07,13,10,34,16.80
2011,07,13,10,35,16.80
2011,07,13,10,36,16.80
2011,07,13,10,37,16.70
2011,07,13,10,38,16.70
2011,07,13,10,39,16.70
2011,07,13,10,40,16.70
2011,07,13,10,41,16.70
2011,07,13,10,42,16.70
2011,07,13,10,43,16.70
2011,07,13,10,44,16.70
2011,07,13,10,45,16.70
2011,07,13,10,46,16.70
2011,07,13,10,47,16.70
2011,07,13,10,48,16.70
2011,07,13,10,49,16.70
2011,07,13,10,50,16.70
2011,07,13,10,51,16.70
2011,07,13,10,52,16.70
2011,07,13,10,53,16.70
2011,07,13,10,54,16.70
2011,07,13,10,55,16.70
2011,07,13,10,56,16.70
2011,07,13,10,57,16.70
2011,07,13,10,58,16.70
2011,07,13,10,59,16.70
2011,07,13,11,00,16.60
2011,07,13,11,01,16.60
2011,07,13,11,02,16.60
2011,07,13,11,03,16.60
2011,07,13,11,04,16.50
2011,07,13,11,05,16.50
2011,07,13,11,06,16.50
2011,07,13,11,07,16.40
2011,07,13,11,08,16.40
2011,07,13,11,09,16.40
2011,07,13,11,10,16.40
2011,07,13,11,11,16.40
2011,07,13,11,12,16.40
2011,07,13,11,13,16.40
2011,07,13,11,14,16.40
2011,07,13,11,15,16.40
2011,07,13,11,16,16.40
2011,07,13,11,17,16.40
2011,07,13,11,18,16.40
2011,07,13,11,19,16.40
2011,07,13,11,20,16.30
2011,07,13,11,21,16.30
2011,07,13,11,22,16.30
2011,07,13,11,23,16.30
2011,07,13,11,24,16.30
2011,07,13,11,25,16.30
2011,07,13,11,26,16.30
2011,07,13,11,27,16.30
2011,07,13,11,28,16.30
2011,07,13,11,29,16.30
2011,07,13,11,30,16.30
2011,07,13,11,31,16.30
2011,07,13,11,32,16.30
2011,07,13,11,33,16.20
2011,07,13,11,34,16.20
2011,07,13,11,35,16.20
2011,07,13,11,36,16.20
2011,07,13,11,37,16.20
2011,07,13,11,38,16.20
2011,07,13,11,39,16.20
2011,07,13,11,40,16.20
2011,07,13,11,41,16.20
2011,07,13,11,42,16.10
2011,07,13,11,43,16.10
2011,07,13,11,44,16.10
2011,07,13,11,45,16.00
2011,07,13,11,46,16.00
2011,07,13,11,47,16.00
2011,07,13,11,48,15.90
2011,07,13,11,49,15.90
2011,07,13,11,50,15.90
2011,07,13,11,51,15.80
2011,07,13,11,52,15.80
2011,07,13,11,53,15.80
2011,07,13,11,54,15.70
2011,07,13,11,55,15.70
2011,07,13,11,56,15.70
2011,07,13,11,57,15.60
2011,07,13,11,58,15.60
2011,07,13,11,59,15.60
2011,07,13,12,00,15.50
2011,07,13,12,01,15.50
2011,07,13,12,02,15.50
2011,07,13,12,03,15.40
2011,07,13,12,04,15.40
2011,07,13,12,05,15.40
2011,07,13,12,06,15.40
2011,07,13,12,07,15.40
2011,07,13,12,08,15.40
2011,07,13,12,09,15.30
2011,07,13,12,10,15.30
2011,07,13,12,11,15.30
2011,07,13,12,12,15.30
2011,07,13,12,13,15.30
2011,07,13,12,14,15.20
2011,07,13,12,15,15.20
2011,07,13,12,16,15.20
2011,07,13,12,17,15.20
2011,07,13,12,18,15.10
2011,07,13,12,19,15.10
2011,07,13,12,20,15.10
2011,07,13,12,21,15.10
2011,07,13,12,22,15.10
2011,07,13,12,23,15.00
2011,07,13,12,24,15.00
2011,07,13,12,25,14.90
2011,07,13,12,26,14.90
2011,07,13,12,27,14.90
2011,07,13,12,28,14.90
2011,07,13,12,29,14.80
2011,07,13,12,30,14.80
2011,07,13,12,31,14.80
2011,07,13,12,32,14.80
2011,07,13,12,33,14.80
2011,07,13,12,34,14.80
2011,07,13,12,35,14.80
2011,07,13,12,36,14.80
2011,07,13,12,37,14.80
2011,07,13,12,38,14.80
2011,07,13,12,39,14.80
2011,07,13,12,40,14.80
2011,07,13,12,41,14.90
2011,07,13,12,42,14.90
2011,07,13,12,43,14.90
2011,07,13,12,44,14.90
2011,07,13,12,45,14.90
2011,07,13,12,46,14.90
2011,07,13,12,47,15.00
2011,07,13,12,48,15.00
2011,07,13,12,49,15.10
2011,07,13,12,50,15.10
2011,07,13,12,51,15.20
2011,07,13,12,52,15.20
2011,07,13,12,53,15.20
2011,07,13,12,54,15.30
2011,07,13,12,55,15.30
2011,07,13,12,56,15.30
2011,07,13,12,57,15.30
2011,07,13,12,58,15.30
2011,07,13,12,59,15.30
2011,07,13,13,00,15.30
2011,07,13,13,01,15.30
2011,07,13,13,02,15.30
2011,07,13,13,03,15.30
2011,07,13,13,04,15.30
2011,07,13,13,05,15.40
2011,07,13,13,06,15.40
2011,07,13,13,07,15.40
2011,07,13,13,08,15.40
2011,07,13,13,09,15.40
2011,07,13,13,10,15.50
2011,07,13,13,11,15.50
2011,07,13,13,12,15.60
2011,07,13,13,13,15.60
2011,07,13,13,14,15.60
2011,07,13,13,15,15.60
2011,07,13,13,16,15.60
2011,07,13,13,17,15.60
2011,07,13,13,18,15.60
2011,07,13,13,19,15.60
2011,07,13,13,20,15.60
2011,07,13,13,21,15.50
2011,07,13,13,22,15.50
2011,07,13,13,23,15.50
2011,07,13,13,24,15.50
2011,07,13,13,25,15.50
2011,07,13,13,26,15.40
2011,07,13,13,27,15.40
2011,07,13,13,28,15.40
2011,07,13,13,29,15.50
2011,07,13,13,30,15.50
2011,07,13,13,31,15.50
2011,07,13,13,32,15.50
2011,07,13,13,33,15.50
2011,07,13,13,34,15.50
2011,07,13,13,35,15.60
2011,07,13,13,36,15.60
2011,07,13,13,37,15.60
2011,07,13,13,38,15.60
2011,07,13,13,39,15.60
2011,07,13,13,40,15.60
2011,07,13,13,41,15.60
2011,07,13,13,42,15.70
2011,07,13,13,43,15.70
2011,07,13,13,44,15.70
2011,07,13,13,45,15.70
2011,07,13,13,46,15.70
2011,07,13,13,47,15.70
2011,07,13,13,48,15.80
2011,07,13,13,49,15.70
2011,07,13,13,50,15.70
2011,07,13,13,51,15.70
2011,07,13,13,52,15.70
2011,07,13,13,53,15.70
2011,07,13,13,54,15.70
2011,07,13,13,55,15.70
2011,07,13,13,56,15.70
2011,07,13,13,57,15.70
2011,07,13,13,58,15.70
2011,07,13,13,59,15.70
2011,07,13,14,00,15.70
2011,07,13,14,01,15.70
2011,07,13,14,02,15.70
2011,07,13,14,03,15.70
2011,07,13,14,04,15.70
2011,07,13,14,05,15.60
2011,07,13,14,06,15.60
2011,07,13,14,07,15.60
2011,07,13,14,08,15.60
2011,07,13,14,09,15.60
2011,07,13,14,10,15.60
2011,07,13,14,11,15.60
2011,07,13,14,12,15.60
2011,07,13,14,13,15.70
2011,07,13,14,14,15.70
2011,07,13,14,15,15.70
2011,07,13,14,16,15.70
2011,07,13,14,17,15.70
2011,07,13,14,18,15.70
2011,07,13,14,19,15.70
2011,07,13,14,20,15.70
2011,07,13,14,21,15.70
2011,07,13,14,22,15.70
2011,07,13,14,23,15.70
2011,07,13,14,24,15.70
2011,07,13,14,25,15.70
2011,07,13,14,26,15.70
2011,07,13,14,27,15.70
2011,07,13,14,28,15.70
2011,07,13,14,29,15.80
2011,07,13,14,30,15.80
2011,07,13,14,31,15.80
2011,07,13,14,32,15.80
2011,07,13,14,33,15.80
2011,07,13,14,34,15.80
2011,07,13,14,35,15.80
2011,07,13,14,36,15.80
2011,07,13,14,37,15.80
2011,07,13,14,38,15.80
2011,07,13,14,39,15.80
2011,07,13,14,40,15.80
2011,07,13,14,41,15.80
2011,07,13,14,42,15.80
2011,07,13,14,43,15.80
2011,07,13,14,44,15.80
2011,07,13,14,45,15.80
2011,07,13,14,46,15.80
2011,07,13,14,47,15.80
2011,07,13,14,48,15.80
2011,07,13,14,49,15.80
2011,07,13,14,50,15.80
2011,07,13,14,51,15.80
2011,07,13,14,52,15.90
2011,07,13,14,53,15.90
2011,07,13,14,54,15.90
2011,07,13,14,55,15.90
2011,07,13,14,56,15.90
2011,07,13,14,57,15.90
2011,07,13,14,58,16.00
2011,07,13,14,59,16.00
2011,07,13,15,00,16.00
2011,07,13,15,01,16.00
2011,07,13,15,02,16.00
2011,07,13,15,03,16.00
2011,07,13,15,04,15.90
2011,07,13,15,05,15.90
2011,07,13,15,06,15.90
2011,07,13,15,07,15.90
2011,07,13,15,08,15.80
2011,07,13,15,09,15.80
2011,07,13,15,10,15.80
2011,07,13,15,11,15.80
2011,07,13,15,12,15.80
2011,07,13,15,13,15.80
2011,07,13,15,14,15.70
2011,07,13,15,15,15.70
2011,07,13,15,16,15.70
2011,07,13,15,17,15.70
2011,07,13,15,18,15.70
2011,07,13,15,19,15.70
2011,07,13,15,20,15.70
2011,07,13,15,21,15.60
2011,07,13,15,22,15.60
2011,07,13,15,23,15.60
2011,07,13,15,24,15.60
2011,07,13,15,25,15.60
2011,07,13,15,26,15.60
2011,07,13,15,27,15.60
2011,07,13,15,28,15.60
2011,07,13,15,29,15.60
2011,07,13,15,30,15.60
2011,07,13,15,31,15.60
2011,07,13,15,32,15.60
2011,07,13,15,33,15.60
2011,07,13,15,34,15.60
2011,07,13,15,35,15.60
2011,07,13,15,36,15.60
2011,07,13,15,37,15.60
2011,07,13,15,38,15.60
2011,07,13,15,39,15.60
2011,07,13,15,40,15.60
2011,07,13,15,41,15.60
2011,07,13,15,42,15.60
2011,07,13,15,43,15.60
2011,07,13,15,44,15.60
2011,07,13,15,45,15.60
2011,07,13,15,46,15.60
2011,07,13,15,47,15.60
2011,07,13,15,48,15.60
2011,07,13,15,49,15.60
2011,07,13,15,50,15.60
2011,07,13,15,51,15.60
2011,07,13,15,52,15.60
2011,07,13,15,53,15.50
2011,07,13,15,54,15.50
2011,07,13,15,55,15.50
2011,07,13,15,56,15.50
2011,07,13,15,57,15.50
2011,07,13,15,58,15.50
2011,07,13,15,59,15.50
2011,07,13,16,00,15.40
2011,07,13,16,01,15.50
2011,07,13,16,02,15.50
2011,07,13,16,03,15.50
2011,07,13,16,04,15.50
2011,07,13,16,05,15.50
2011,07,13,16,06,15.50
2011,07,13,16,07,15.50
2011,07,13,16,08,15.50
2011,07,13,16,09,15.50
2011,07,13,16,10,15.60
2011,07,13,16,11,15.60
2011,07,13,16,12,15.60
2011,07,13,16,13,15.60
2011,07,13,16,14,15.60
2011,07,13,16,15,15.60
2011,07,13,16,16,15.60
2011,07,13,16,17,15.60
2011,07,13,16,18,15.60
2011,07,13,16,19,15.60
2011,07,13,16,20,15.60
2011,07,13,16,21,15.60
2011,07,13,16,22,15.60
2011,07,13,16,23,15.60
2011,07,13,16,24,15.60
2011,07,13,16,25,15.60
2011,07,13,16,26,15.60
2011,07,13,16,27,15.60
2011,07,13,16,28,15.60
2011,07,13,16,29,15.60
2011,07,13,16,30,15.60
2011,07,13,16,31,15.60
2011,07,13,16,32,15.60
2011,07,13,16,33,15.60
2011,07,13,16,34,15.60
2011,07,13,16,35,15.60
2011,07,13,16,36,15.60
2011,07,13,16,37,15.60
2011,07,13,16,38,15.60
2011,07,13,16,39,15.60
2011,07,13,16,40,15.60
2011,07,13,16,41,15.60
2011,07,13,16,42,15.60
2011,07,13,16,43,15.60
2011,07,13,16,44,15.60
2011,07,13,16,45,15.60
2011,07,13,16,46,15.60
2011,07,13,16,47,15.60
2011,07,13,16,48,15.60
2011,07,13,16,49,15.60
2011,07,13,16,50,15.60
2011,07,13,16,51,15.60
2011,07,13,16,52,15.60
2011,07,13,16,53,15.60
2011,07,13,16,54,15.60
2011,07,13,16,55,15.60
2011,07,13,16,56,15.60
2011,07,13,16,57,15.60
2011,07,13,16,58,15.60
2011,07,13,16,59,15.60
2011,07,13,17,00,15.60
2011,07,13,17,01,15.60
2011,07,13,17,02,15.60
2011,07,13,17,03,15.60
2011,07,13,17,04,15.60
2011,07,13,17,05,15.60
2011,07,13,17,06,15.60
2011,07,13,17,07,15.60
2011,07,13,17,08,15.60
2011,07,13,17,09,15.60
2011,07,13,17,10,15.60
2011,07,13,17,11,15.60
2011,07,13,17,12,15.60
2011,07,13,17,13,15.60
2011,07,13,17,14,15.60
2011,07,13,17,15,15.60
2011,07,13,17,16,15.60
2011,07,13,17,17,15.60
2011,07,13,17,18,15.60
2011,07,13,17,19,15.60